Погода в Кучугурах

Россия / Белгородская область     50°06′40″N   38°56′23″E
темп.,
°C
ветер,
м/с
пор.,
м/с
влажн.,
%
обл.,
%
осадки,
мм/ч
давл.,
гПа
погр.,
м
21 июня, пн
пн2100:00+20в615654 0.0 1017333
03:00+18в4117073 0.0 1017187
06:00+18в31171100 0.0 1017196
09:00+24вюв5125611 0.0 1018472
12:00+27вюв79475 0.0 1017777
15:00+29в69515 0.0 10171189
18:00+26в5116013 0.0 1017388
21:00+22всв411695 0.0 1017156
22 июня, вт
вт2200:00+21в515665 0.0 1017256
03:00+19в51468100 0.0 1017261
06:00+19в41178100 0.0 1017214
09:00+25вюв596291 0.0 1018389
12:00+29в684860 0.0 1018879
15:00+30в585472 0.0 10171218
18:00+29всв59631 0.0 1016360
21:00+24всв5147014 0.0 1016276
23 июня, ср
ср2300:00+23всв61768100 0.0 1016369
03:00+21всв51268100 0.0 1016229
06:00+20в4977100 0.0 1016173
09:00+26вюв355895 0.0 1017290
12:00+29вюв3550100 0.0 1018481
15:00+29св5858100 0.0 1017696
18:00+28св596797 0.0 1016395
21:00+24всв49805 0.0 1017140
24 июня, чт
чт2400:00+22всв411745 0.0 1016180
03:00+21всв413685 0.0 1016226
06:00+21всв411765 0.0 1017214
09:00+27в5760100 0.0 1017363
12:00+30в565185 0.0 1017906
15:00+31в4548100 0.0 10161331
18:00+29всв3564100 0.0 1016154
21:00+24св357599 0.0 101659
25 июня, пт
пт2500:00+23всв377943 0.0 1015110
03:00+21св368367 0.0 101583
06:00+21св4984100 0.0 1015193
09:00+26св6868100 0.0 1015401
12:00+29св5658100 0.0 1014700
15:00+31св4551100 0.0 10141369
18:00+29св4765100 0.0 1014342
21:00+24св35745 0.0 101278